Regional Weather Roundup
Issued by NWS

Home | Current Version | Previous Version | Text Only | Print | Product List | Glossary Off
Versions: 1 2 3 4 5 6 7 8 9 10 11 12 13 14 15 16 17 18 19 20 21 22 23 24 25 26 27 28 29 30 31 32 33 34 35 36 37 38 39 40 41 42 43 44 45 46 47 48 49 50

972
ASUS45 KSLC 232210
RWRUT

UTAH REGIONAL WEATHER ROUNDUP
NATIONAL WEATHER SERVICE SALT LAKE CITY UT
400 PM MDT TUE AUG 23 2016

UTZ001>011-023>025-232300-

NORTHERN UTAH

CITY           SKY/WX    TMP DP  RH WIND       PRES   REMARKS
BRIGHAM CITY     N/A     87  15   7 SW12      30.05F
HILL AFB       SUNNY     84  28  13 SW6       30.09F
LOGAN          SUNNY     85  26  11 W9G17     30.05F
OGDEN          SUNNY     85  28  12 SW8       30.06F
PROVO AIRPORT  MOSUNNY   84  36  17 VRB5      30.06F
SALT LAKE CITY MOSUNNY   89  29  11 N9G21     30.04F
VERNAL         CLOUDY    78  41  26 N9        30.10S
WENDOVER       MOSUNNY   84  30  14 SE9       30.03F
HEBER CITY     PTSUNNY   88  30  12 W12G18    30.10S
WEST JORDAN    SUNNY     85  33  15 N12G21    30.08F

$$

UTZ012>022-026-027-232300-

SOUTHERN/CENTRAL UTAH

CITY           SKY/WX    TMP DP  RH WIND       PRES   REMARKS
BLANDING       CLOUDY    70  46  42 NW16G22   30.28R
BRYCE CANYON   LGT RAIN  57  48  72 N5        30.35R
CEDAR CITY     MOSUNNY   79  44  28 VRB3      30.17F
DELTA          MOSUNNY   86  30  13 W12       30.08S
MILFORD        PTSUNNY   83  40  21 SW8       30.10F
MOAB/CYNLANDS  CLOUDY    77  49  37 S6        30.08S
PRICE          PTSUNNY   76  42  29 SW8       30.16R
ST GEORGE      MOCLDY    88  52  29 CALM      30.04F

$$

REGIONAL REPORTS     COLORADO/ARIZONA

CITY           SKY/WX    TMP DP  RH WIND       PRES   REMARKS
CRAIG, CO      CLOUDY    80  29  15 SW7       30.13F
GRAND JUNCTION MOSUNNY   78  48  34 W8        30.10F
RIFLE          CLOUDY    79  45  29 E12       30.12F
MONTROSE       CLOUDY    66  50  56 S10       30.22R
CORTEZ         TSTM      56  53  90 S8        30.28R FOG
PAGE, AZ       MOSUNNY   80  46  30 NW8       30.10F
GRAND CANYON   LGT RAIN  66  52  60 S3G17     30.28F
KINGMAN        SUNNY     83  54  36 SW8       30.11F
FLAGSTAFF      PTSUNNY   61  47  59 W13       30.30F

$$

REGIONAL REPORTS    NEVADA/IDAHO/WYOMING

CITY           SKY/WX    TMP DP  RH WIND       PRES   REMARKS
LAS VEGAS, NV  MOSUNNY   89  56  32 E6        29.96F
ELY            PTSUNNY   81  28  14 W7        30.18F
ELKO           SUNNY     86  21   9 W18G30    30.11F
POCATELLO, ID  SUNNY     79  22  12 SW21G28   30.10F
BURLEY         SUNNY     76  30  18 W14G24    30.09F
EVANSTON, WY   SUNNY     76  26  15 W24G39    30.23R
ROCK SPRINGS   CLOUDY    77  23  13 W20G33    30.15F

$$




USA.gov is the U.S. government's official web portal to all federal, state and local government web resources and services.